Location: Foligno
(42.9600°N, 12.7050°E)
Time: 01:28:10
(UTC+02:00)

ISS - Pass Details

Date: 17 November 2017
Orbit: 401 x 409 km, 51.6° (Epoch: 22 August)

Event Time Altitude Azimuth Distance (km) Brightness Sun altitude
Exits shadow 04:52:44 30° 134° (SE) 741 -2.1 -23.9°
Drops below altitude 10° 04:54:33 10° 130° (SE) 1,446 -0.3 -23.6°
Sets 04:56:37 0° 128° (SE) 2,302 0.9 -23.2°
